K1QL Weather Reports


time (UTC)temp
C
wind
direction
speed
KPH
gust
KPH
rain 1hr
cm
rain 24hr
cm
rain mn
cm
humidity
%
barometer
mb
20260505023905 13 230 4.8 4.8 0.00 0.00 0.00 60 1011.3
20260505023402 13 213 4.8 6.4 0.00 0.00 0.00 59 1011.0
20260505022859 13 120 4.8 4.8 0.00 0.00 0.00 59 1011.1
20260505022356 13 206 3.2 4.8 0.00 0.00 0.00 59 1011.2
20260505021854 13 154 0.0 8.0 0.00 0.00 0.00 58 1011.2
20260505021350 13 180 1.6 6.4 0.00 0.00 0.00 58 1011.1
20260505020846 13 195 8.0 8.0 0.00 0.00 0.00 58 1011.2
20260505020341 13 231 3.2 4.8 0.00 0.00 0.00 58 1011.3
20260505015838 13 179 6.4 6.4 0.00 0.00 0.00 57 1011.2
20260505015336 13 238 1.6 4.8 0.00 0.00 0.00 57 1011.1
20260505014833 13 132 1.6 6.4 0.00 0.00 0.00 56 1011.1
20260505014330 13 253 1.6 8.0 0.00 0.00 0.00 55 1011.1
20260505013826 13 216 4.8 4.8 0.00 0.00 0.00 55 1011.0
20260505013324 14 191 3.2 4.8 0.00 0.00 0.00 54 1011.1
20260505012822 14 206 3.2 9.7 0.00 0.00 0.00 54 1011.1
20260505012320 14 280 0.0 4.8 0.00 0.00 0.00 52 1010.8
20260505011815 14 150 8.0 8.0 0.00 0.00 0.00 52 1010.7
20260505011312 15 205 3.2 8.0 0.00 0.00 0.00 51 1010.6
20260505010808 14 231 4.8 6.4 0.00 0.00 0.00 51 1010.7
20260505010304 15 192 4.8 9.7 0.00 0.00 0.00 50 1010.6
20260505005801 15 329 1.6 4.8 0.00 0.00 0.00 49 1010.5
20260505005258 15 226 4.8 11.3 0.00 0.00 0.00 49 1010.3
20260505004755 15 283 0.0 6.4 0.00 0.00 0.00 49 1010.2
20260505004251 15 15 0.0 4.8 0.00 0.00 0.00 48 1010.2
20260505003749 15 212 4.8 6.4 0.00 0.00 0.00 48 1010.2
20260505003246 15 190 6.4 8.0 0.00 0.00 0.00 48 1009.9
20260505002742 15 197 3.2 11.3 0.00 0.00 0.00 47 1009.8
20260505002240 15 256 11.3 17.7 0.00 0.00 0.00 47 1009.5
20260505001737 15 204 4.8 9.7 0.00 0.00 0.00 46 1009.6
20260505001235 15 66 0.0 8.0 0.00 0.00 0.00 46 1009.3
20260505000731 16 198 3.2 4.8 0.00 0.00 0.00 45 1009.3
20260505000229 16 249 3.2 8.0 0.00 0.00 0.00 45 1009.4
20260504235725 16 254 8.0 9.7 0.00 0.00 0.00 45 1009.2
20260504235221 16 192 4.8 8.0 0.00 0.00 0.00 45 1009.3
20260504234719 16 250 4.8 17.7 0.00 0.00 0.00 44 1009.1
20260504234216 16 183 3.2 8.0 0.00 0.00 0.00 43 1009.0
20260504233712 16 163 3.2 4.8 0.00 0.00 0.00 43 1008.8
20260504233208 17 225 8.0 12.9 0.00 0.00 0.00 42 1008.8
20260504232706 17 169 3.2 8.0 0.00 0.00 0.00 42 1008.8
20260504232203 17 213 3.2 12.9 0.00 0.00 0.00 42 1008.6
20260504231659 17 222 6.4 12.9 0.00 0.00 0.00 41 1008.8
20260504231155 17 280 4.8 9.7 0.00 0.00 0.00 41 1008.5
20260504230652 17 257 6.4 12.9 0.00 0.00 0.00 41 1008.6
20260504230151 17 173 3.2 9.7 0.00 0.00 0.00 41 1008.5
20260504225649 18 223 12.9 16.1 0.00 0.00 0.00 40 1008.6
20260504225144 18 231 6.4 6.4 0.00 0.00 0.00 40 1008.4
20260504224642 18 234 6.4 19.3 0.00 0.00 0.00 39 1008.2
20260504224138 18 224 8.0 8.0 0.00 0.00 0.00 40 1008.2
20260504223636 18 241 4.8 14.5 0.00 0.00 0.00 40 1008.2
20260504223131 18 286 8.0 9.7 0.00 0.00 0.00 39 1008.0
20260504222628 18 216 3.2 11.3 0.00 0.00 0.00 39 1007.8
20260504222125 18 241 6.4 12.9 0.00 0.00 0.00 38 1008.0
20260504221622 19 214 14.5 17.7 0.00 0.00 0.00 38 1008.0
20260504221120 19 282 6.4 14.5 0.00 0.00 0.00 37 1007.9
20260504220616 19 224 9.7 17.7 0.00 0.00 0.00 37 1007.9
20260504220114 20 200 6.4 14.5 0.00 0.00 0.00 36 1007.7
20260504215609 20 230 4.8 11.3 0.00 0.00 0.00 36 1008.0
20260504215107 20 255 11.3 14.5 0.00 0.00 0.00 35 1007.8
20260504214603 20 255 9.7 27.4 0.00 0.00 0.00 35 1007.9
20260504214059 20 279 4.8 11.3 0.00 0.00 0.00 35 1007.8
20260504213556 20 269 3.2 19.3 0.00 0.00 0.00 35 1007.8
20260504213053 20 263 9.7 17.7 0.00 0.00 0.00 34 1007.8
20260504212548 20 227 9.7 17.7 0.00 0.00 0.00 34 1007.8
20260504212046 20 255 4.8 12.9 0.00 0.00 0.00 34 1007.7
20260504211543 20 256 9.7 17.7 0.00 0.00 0.00 33 1007.7
20260504211040 20 197 9.7 20.9 0.00 0.00 0.00 33 1007.5
20260504210537 20 232 6.4 14.5 0.00 0.00 0.00 33 1007.5
20260504210034 20 267 9.7 20.9 0.00 0.00 0.00 31 1007.5
20260504205532 21 19 1.6 12.9 0.00 0.00 0.00 31 1007.5
20260504205029 21 197 9.7 14.5 0.00 0.00 0.00 30 1007.3
20260504204527 21 267 6.4 11.3 0.00 0.00 0.00 30 1007.4
20260504204026 21 258 8.0 14.5 0.00 0.00 0.00 29 1007.4
20260504203523 21 256 3.2 17.7 0.00 0.00 0.00 29 1007.4
20260504203021 21 260 3.2 9.7 0.00 0.00 0.00 29 1007.5
20260504202516 21 233 4.8 14.5 0.00 0.00 0.00 29 1007.3
20260504202013 21 262 9.7 11.3 0.00 0.00 0.00 29 1007.3
20260504201510 21 252 9.7 16.1 0.00 0.00 0.00 29 1007.3
20260504201008 20 22 1.6 9.7 0.00 0.00 0.00 29 1007.4
20260504200504 21 222 16.1 19.3 0.00 0.00 0.00 29 1007.7
20260504200001 21 273 9.7 17.7 0.00 0.00 0.00 28 1007.4
20260504195457 21 294 19.3 20.9 0.00 0.00 0.00 28 1007.8
20260504194954 21 228 6.4 14.5 0.00 0.00 0.00 28 1007.4
20260504194450 21 267 11.3 17.7 0.00 0.00 0.00 28 1007.5
20260504193945 21 163 6.4 11.3 0.00 0.00 0.00 28 1007.7
20260504193443 21 164 8.0 11.3 0.00 0.00 0.00 28 1007.5
20260504192942 21 228 6.4 17.7 0.00 0.00 0.00 27 1007.7
20260504192438 21 180 6.4 20.9 0.00 0.00 0.00 28 1007.7
20260504191937 21 247 11.3 19.3 0.00 0.00 0.00 28 1007.4
20260504191435 21 252 8.0 14.5 0.00 0.00 0.00 28 1007.4
20260504190930 21 206 6.4 17.7 0.00 0.00 0.00 28 1007.5
20260504190426 21 188 9.7 17.7 0.00 0.00 0.00 28 1007.5
20260504185923 21 253 14.5 27.4 0.00 0.00 0.00 27 1007.8
20260504185420 21 288 4.8 19.3 0.00 0.00 0.00 27 1007.9
20260504184916 21 184 9.7 19.3 0.00 0.00 0.00 26 1007.8
20260504184412 21 286 12.9 19.3 0.00 0.00 0.00 27 1008.0
20260504183908 21 263 12.9 27.4 0.00 0.00 0.00 28 1007.9
20260504183405 21 274 4.8 27.4 0.00 0.00 0.00 28 1008.0
20260504182903 21 289 6.4 14.5 0.00 0.00 0.00 27 1008.0
20260504182400 21 241 12.9 17.7 0.00 0.00 0.00 27 1007.9
20260504181856 21 234 3.2 16.1 0.00 0.00 0.00 27 1008.2
20260504181354 21 249 8.0 14.5 0.00 0.00 0.00 26 1008.1
20260504180853 20 269 9.7 20.9 0.00 0.00 0.00 27 1008.5
20260504180351 20 265 4.8 16.1 0.00 0.00 0.00 26 1008.1
20260504175849 21 275 12.9 24.1 0.00 0.00 0.00 26 1008.5
20260504175345 20 246 9.7 14.5 0.00 0.00 0.00 26 1008.1
20260504174844 20 236 14.5 22.5 0.00 0.00 0.00 27 1008.6
20260504174341 20 247 17.7 27.4 0.00 0.00 0.00 27 1008.5
20260504173837 20 280 12.9 17.7 0.00 0.00 0.00 26 1008.6
20260504173334 20 278 19.3 22.5 0.00 0.00 0.00 28 1008.7
20260504172831 20 230 11.3 24.1 0.00 0.00 0.00 27 1008.5
20260504172328 20 278 9.7 30.6 0.00 0.00 0.00 27 1008.6
20260504171824 20 178 8.0 27.4 0.00 0.00 0.00 27 1008.4
20260504171321 20 300 4.8 12.9 0.00 0.00 0.00 28 1008.6
20260504170818 20 276 12.9 20.9 0.00 0.00 0.00 27 1008.4
20260504170315 20 271 9.7 19.3 0.00 0.00 0.00 26 1008.6
20260504160233 18 266 12.9 17.7 0.00 0.00 0.00 29 1009.5
20260504150659 18 249 20.9 22.5 0.00 0.00 0.00 30 1010.0
20260504150155 18 324 6.4 17.7 0.00 0.00 0.00 31 1009.9
20260504141124 16 253 9.7 20.9 0.00 0.00 0.00 34 1010.4
20260504140621 16 235 12.9 20.9 0.00 0.00 0.00 35 1010.7
20260504140117 17 248 14.5 16.1 0.00 0.00 0.00 34 1010.6
20260504130545 15 255 6.4 14.5 0.00 0.00 0.00 39 1011.0
20260504110433 7 233 3.2 3.2 0.00 0.00 0.00 63 1011.6
20260504100355 2 114 1.6 3.2 0.00 0.00 0.00 82 1011.4
20260504081748 3 81 1.6 3.2 0.00 0.00 0.00 78 1011.2
20260504081245 3 105 1.6 1.6 0.00 0.00 0.00 78 1011.1
20260504080741 4 103 0.0 3.2 0.00 0.00 0.00 78 1011.0
20260504080237 4 93 1.6 3.2 0.00 0.00 0.00 78 1011.1
20260504070205 3 69 1.6 1.6 0.00 0.00 0.00 78 1010.9
20260504060126 2 102 0.0 1.6 0.00 0.00 0.00 79 1010.8
20260504050554 2 121 0.0 1.6 0.00 0.00 0.00 80 1011.0
20260504045548 1 112 1.6 1.6 0.00 0.00 0.00 83 1011.0
20260504045043 1 150 0.0 1.6 0.00 0.00 0.00 84 1011.1
20260504044541 1 86 3.2 3.2 0.00 0.00 0.00 84 1011.2
20260504044037 1 113 0.0 1.6 0.00 0.00 0.00 84 1011.2
20260504043534 1 107 0.0 1.6 0.00 0.00 0.00 85 1011.0
20260504043032 1 121 0.0 1.6 0.00 0.00 0.00 85 1011.1
20260504042529 1 135 0.0 1.6 0.00 0.00 0.00 86 1011.1
20260504042026 1 94 0.0 1.6 0.00 0.00 0.00 85 1010.9
20260504041522 1 93 0.0 3.2 0.00 0.00 0.00 85 1010.9
20260504041018 1 124 0.0 1.6 0.00 0.00 0.00 86 1010.8
20260504040516 1 80 0.0 1.6 0.00 0.00 0.00 85 1010.8
20260504040012 1 72 1.6 3.2 0.00 0.00 0.00 85 1010.8
20260504035509 1 135 0.0 1.6 0.00 0.00 0.00 85 1010.8
20260504035005 1 125 0.0 1.6 0.00 0.00 0.00 85 1010.6
20260504034503 1 66 0.0 0.0 0.00 0.00 0.00 85 1010.7
20260504034000 1 89 0.0 1.6 0.00 0.00 0.00 85 1010.6
20260504033457 1 150 1.6 1.6 0.00 0.00 0.00 85 1010.6
20260504032955 1 113 0.0 1.6 0.00 0.00 0.00 85 1010.6
20260504032451 1 104 0.0 0.0 0.00 0.00 0.00 85 1010.7
20260504031948 1 80 0.0 1.6 0.00 0.00 0.00 84 1010.5
20260504031445 1 55 0.0 3.2 0.00 0.00 0.00 83 1010.6
20260504030942 1 56 1.6 1.6 0.00 0.00 0.00 83 1010.6
20260504030439 1 68 0.0 1.6 0.00 0.00 0.00 83 1010.4
20260504025935 1 128 0.0 0.0 0.00 0.00 0.00 82 1010.4
20260504025432 1 72 0.0 0.0 0.00 0.00 0.00 81 1010.4
20260504024929 1 22 0.0 1.6 0.00 0.00 0.00 80 1010.5
20260504024426 1 66 1.6 3.2 0.00 0.00 0.00 80 1010.3